Preview of NWS' New Version of Forecast
This preview is not operational and should not be used for support decisions.
Latest weather observations around

Troy, Troy Municipal Airport (KTOI)

Using International System of Units (Switch to English Units)
Date/ Time (CST) Wind (kph) Vis. (km) Weather Sky Cond. Temp (°C) Rel. Humidity Wind Chill (°C) Heat Index (°C) Pressure Precip. (cm)
Air Dwpt 6 hour Altimeter (hPa) Sea level (hPa) 1 hr 3 hr 6 hr
Max Min
Jan 21 21:53 ESE 11 16.09 Clear CLR 2 -3     67% -1   1029.1 1029.1      
Jan 21 20:53 E 5 16.09 Clear CLR 2 -2     75% 0   1028.5 1028.7      
Jan 21 19:53 E 9 16.09 Clear CLR 4 -3     62% 2   1028.1 1028.4      
Jan 21 18:53 Calm 16.09 Clear CLR 3 -2     72%     1028.5 1028.5      
Jan 21 17:53 NE 5 16.09 Clear CLR 5 -2     60% 4   1028.5 1028.5      
Jan 21 16:53 NNE 8 16.09 Clear CLR 8 -4     43% 7   1028.1 1028.3      
Jan 21 15:53 E 11 16.09 Clear CLR 9        % 8   1028.1 1028.2      
Jan 21 14:53 N 11 16.09 Clear CLR 10 -4     37%     1028.1 1028.2      
Jan 21 13:53 NNE 17 16.09 Clear CLR 10 -4     36%     1028.5 1028.6      
Jan 21 12:53 N 11 16.09 Clear CLR 8 -6     37% 6   1029.1 1029      
Jan 21 11:53 NE 13 16.09 Clear CLR 7 -6     40% 5   1029.8 1030.1      
Jan 21 10:53 NE 9 16.09 Clear CLR 6 -6     43% 4   1030.1 1030.4      
Jan 21 09:53 NNE 15 16.09 Clear CLR 3 -6     50% 0   1030.5 1030.8      
Jan 21 08:53 NE 18 16.09 Clear CLR 1 -7     58% -4   1029.8 1030      
Jan 21 07:53 N 11 16.09 Clear CLR -1 -5     75% -5   1029.5 1029.7      
Jan 21 06:53 NNW 5 16.09 Clear CLR -3 -6     81% -5   1028.5 1028.5      
Jan 21 05:53 N 8 16.09 Clear CLR -3 -5     85% -6   1027.4 1027.5      
Jan 21 04:53 N 5 16.09 Clear CLR -2 -5     81% -4   1026.4 1026.5      
Jan 21 03:53 NNW 5 16.09 Clear CLR -2 -5     81% -4   1026.1 1026.2      
Jan 21 02:53 NNW 8 16.09 Clear CLR -2 -5     81% -5   1026.1 1026.3      
Jan 21 01:53 Calm 16.09 Clear CLR -2 -4     82%     1025.7 1025.9      
Jan 21 00:53 Calm 16.09 Clear CLR -2 -4     88%     1025.4 1025.7      
Jan 20 23:53 Calm 16.09 Clear CLR -2 -4     85%     1025.7 1025.8      
Jan 20 22:53 Calm 16.09 Clear CLR -2 -4     88%     1025.4 1025.5      
Jan 20 21:53 Calm 16.09 Clear CLR -1 -4     78%     1025.1 1025.1      
Jan 20 20:53 NW 8 16.09 Clear CLR 0 -4     75% -3   1025.1 1025.1      
Jan 20 19:53 NW 11 16.09 Clear CLR 1 -4     72% -3   1024.4 1024.6      
Jan 20 18:53 NW 13 16.09 Clear CLR 1 -3     72% -3   1023.4 1023.7      
Jan 20 17:53 NW 15 16.09 Clear CLR 2 -3     69% -2   1023.4 1023.5      
Jan 20 16:53 NNW 24 16.09 Clear CLR 3 -3     64% -2   1022 1022.1      
Jan 20 15:53 NW 22 16.09 Mostly Clear FEW030 4 -3     62% -1   1021.3 1021.5      
Jan 20 14:53 NW 22 16.09 Mostly Cloudy BKN030 4 -3     60% 0   1020.7 1020.6      
Jan 20 14:38 WNW 18 16.09 Mostly Cloudy BKN030 4 -2     64% 0   1020.3        
Jan 20 14:11 NNW 22 16.09 Mostly Cloudy BKN029 4 -3     60% 0   1020        
Jan 20 13:53 NW 21 16.09 Cloudy OVC030 4 -3     60% 0   1020 1020.2      
Jan 20 13:49 NNW 24 16.09 Cloudy OVC030 5 -2     61% 1   1020.3        
Jan 20 12:53 NW 24 16.09 Cloudy OVC029 4 -2     62% 0   1019.7 1019.6      
Jan 20 11:53 NNW 26 16.09 Cloudy OVC026 3 -2     67% -2   1020.3 1020.3      
Jan 20 10:53 NW 22 16.09 Cloudy OVC022 2 -2     73% -3   1020.7 1020.8      
Jan 20 09:53 NNW 26 16.09 Cloudy OVC022 2 -2     73% -3   1020.3 1020.4      
Jan 20 08:53 NNW 24 16.09 Cloudy OVC023 2 -3     70% -3   1019 1018.8      
Jan 20 07:53 NW 32 16.09 Cloudy and Windy OVC025 2 -3     69% -4   1018 1017.8      
Jan 20 06:53 NW 33 16.09 Cloudy and Windy OVC025 2 -3     72% -5   1016.6 1016.7      
Jan 20 05:53 WNW 24 16.09 Cloudy OVC025 2 -3     72% -4   1014.9 1014.8 0   0
Jan 20 04:53 NW 22 16.09 Cloudy OVC022 2 -1     82% -3   1013.9 1013.7 0    
Jan 20 03:53 WNW 26 16.09 Cloudy OVC021 2 -1     82% -3   1013.2 1013.2      
Jan 20 03:07 NW 33 16.09 Cloudy and Windy BKN026 OVC032 3 -1     73% -2   1012.9        
Jan 20 02:53 NW 30 16.09 Mostly Cloudy BKN030 BKN038 3 -1     76% -2   1012.9 1012.6 0 0  
Jan 20 02:41 WNW 21 16.09 Mostly Cloudy FEW016 SCT026 BKN035 3 0     82% -2   1012.5   0    
Jan 20 01:53 WNW 35 16.09 Cloudy and Windy BKN021 OVC026 4 1     76% -1   1011.2 1011.1      
Jan 20 00:53 WNW 28 16.09 Cloudy OVC025 7 2     73% 2   1010.5 1010.1 0    
Jan 19 23:53 WNW 24 16.09 Cloudy SCT015 BKN024 OVC029 8 5     82% 4   1009.2 1009 0   0
Jan 19 22:53 WNW 24 16.09 Cloudy OVC019 10 7     83%     1008.1 1007.7      
Jan 19 21:53 WNW 17 16.09 Cloudy FEW022 OVC029 12 8     80%     1007.1 1006.6      
Jan 19 20:53   16.09 Cloudy SCT015 OVC023 13 10     80%     1005.8 1005.5   0  
Jan 19 20:28 WSW 11 16.09 Mostly Cloudy SCT017 BKN024 BKN036 13 12     93%     1005.1        
Jan 19 19:53 W 8 16.09 Mostly Clear FEW035 13 12     93%     1004.8 1004.2      
Jan 19 18:53 W 9 16.09 Partly Cloudy SCT110 14 13     90%     1004.4 1003.9 0    
Jan 19 17:53 W 15 16.09 Cloudy FEW014 OVC032 16 14     90%     1003.7 1003.5 0   1
Jan 19 17:48 W 15 16.09 Light Rain FEW012 SCT017 OVC030 16 14     88%     1003.7   0    
Jan 19 16:59 W 22 4.83 Rain and Fog/Mist SCT012 BKN018 OVC027 17 16     93%     1002.7   0    
Jan 19 16:53 W 21 4.02 Heavy Rain and Fog/Mist FEW007 BKN015 OVC023 17 16     96%     1002.7 1002.4 1    
Jan 19 16:50 W 15 4.83 Rain and Fog/Mist FEW007 BKN015 OVC024 17 16     94%     1002.7   1    
Jan 19 16:46 W 22 2.82 Rain and Fog/Mist FEW007 BKN012 OVC024 17 16     96%     1003.1   1    
Jan 19 16:41 WSW 22 2.01 Heavy Rain and Fog/Mist FEW007 BKN011 OVC024 17 16     96%     1003.1   1    
Jan 19 16:37 WSW 28 2.82 Heavy Rain and Fog/Mist SCT011 BKN017 OVC022 17 16     90%     1003.1   1    
Jan 19 16:32   4.02 Heavy Rain and Fog/Mist SCT011 BKN020 OVC027 18 16     90%     1001.4   0    
Jan 19 16:19 SSW 28 6.44 Heavy Rain and Fog/Mist BKN022 OVC028 19 18     90%     1001.4   0    
Jan 19 16:00 S 32 16.09 Light Rain SCT020 BKN028 OVC042 20 18     87%     1001   0    
Jan 19 15:53 S 32 16.09 Light Rain SCT021 BKN030 OVC070 20 18     87%     1001 1000.5 0    
Jan 19 15:44 S 21 16.09 Light Rain FEW020 BKN029 OVC070 20 18     87%     1001   0    
Jan 19 15:18 S 24 11.27 Light Rain SCT022 BKN055 OVC075 19 18     90%     1002   0    
Jan 19 15:05 S 22 16.09 Mostly Cloudy SCT021 BKN029 BKN042 19 18     90%     1002.4   0    
Jan 19 14:53 SSW 26 16.09 Light Rain SCT023 BKN032 OVC085 19 18     90%     1002.7 1002.4 0 0  
Jan 19 14:22 S 24 16.09 Cloudy FEW020 BKN041 OVC100 19 18     93%     1003.4   0    
Jan 19 13:53 S 26 16.09 Mostly Cloudy SCT018 BKN025 19 17     87%     1004.4 1003.9 0    
Jan 19 13:20 S 26 6.44 Light Rain and Fog/Mist BKN026 OVC035 18 17     90%     1004.1   0    
Jan 19 13:11 S 18 4.02 Heavy Rain and Fog/Mist SCT026 BKN033 OVC040 19 17     87%     1004.8   0    
Jan 19 13:08 S 30 6.44 Light Rain BKN026 OVC035 19 16     84%     1005.1   0    
Jan 19 12:53 S 28 14.48 Light Rain SCT028 OVC038 20 16     76%     1005.1 1004.8 0    
Jan 19 11:53 S 28 16.09 Cloudy BKN035 BKN045 OVC060 21 14     66%     1007.5 1007     0
Jan 19 10:53 S 22 16.09 Partly Cloudy SCT021 SCT120 20 16     76%     1010.2 1009.7      
Jan 19 10:11 S 24 16.09 Cloudy BKN017 OVC022 19 16     81%     1011.5        
Jan 19 09:53 S 22 16.09 Mostly Cloudy BKN014 BKN020 19 17     84%     1011.5 1011 0    
Jan 19 08:53 S 28 16.09 Cloudy BKN010 BKN017 OVC023 18 17     93%     1011.5 1011.2 0 0  
Jan 19 08:48 S 21 16.09 Cloudy OVC010 18 17     94%     1011.5   0    
Jan 19 08:23 SSE 18 16.09 Cloudy BKN009 OVC013 18 17     93%     1011.5        
Jan 19 07:53 S 18 16.09 Cloudy OVC007 17 16     93%     1011.9 1011.6      
Jan 19 07:42 S 21 16.09 Cloudy OVC007 17 16     93%     1011.9        
Jan 19 07:31 SSE 18 16.09 Cloudy OVC006 17 16     96%     1011.9        
Jan 19 07:21 SSE 15 16.09 Cloudy OVC005 17 16     96%     1011.9        
Jan 19 06:53 S 13 16.09 Cloudy OVC004 16 16     100%     1011.9 1011.7      
Jan 19 06:51 S 15 16.09 Cloudy OVC004 16 16     100%     1011.9        
Jan 19 06:15 SSE 13 9.66 Fog/Mist OVC003 16 16     100%     1011.9        
Jan 19 05:53 S 13 4.83 Fog/Mist OVC002 16 16     100%     1011.9 1011.7      
Jan 19 05:45 SSE 15 3.22 Fog/Mist OVC002 15 15     100%     1011.9        
Jan 19 05:38 S 17 2.82 Fog/Mist OVC002 15 15     100%     1011.9        
Jan 19 05:24 SSE 13 2.41 Fog/Mist OVC002 15        %     1011.9        
Jan 19 05:03 S 9 2.01 Fog/Mist OVC002 14 14     100%     1012.2        
Jan 19 04:53 SSE 11 2.82 Fog/Mist OVC002 14 14     100%     1012.5 1012      
Jan 19 04:38 S 11 2.01 Fog/Mist OVC002 14        %     1012.5        
Jan 19 04:27 SSE 13 2.41 Fog/Mist OVC002 14        %     1012.2        
Jan 19 04:18 SSE 13 4.02 Fog/Mist OVC002 14        %     1012.5        
Jan 19 03:53 SE 13 4.83 Fog/Mist OVC003 14        %     1012.5 1012.1      
Jan 19 02:53 ESE 5 4.83 Fog/Mist OVC003 13        %     1014.9 1014.5      
Jan 19 02:51 Calm 4.83 Fog/Mist OVC003 13        %     1014.9        
Jan 19 02:18 ESE 8 6.44 Fog/Mist OVC004 13 13     100%     1015.2        
Jan 19 01:53 Calm 6.44 Fog/Mist OVC003 13 13     97%     1015.6 1015.3      
Jan 19 01:20 S 5 8.05 Fog/Mist OVC004 13 13     100%     1015.9        
Jan 19 01:04 S 8 9.66 Fog/Mist BKN005 13 12     96%     1015.9        
Jan 19 01:00 S 9 9.66 Fog/Mist SCT006 13 12     96%     1015.9        
Jan 19 00:53 S 8 9.66 Fog/Mist CLR 12 12     100%     1015.9 1015.6      
Jan 18 23:53 SE 8 9.66 Fog/Mist CLR 11 11     100%     1015.9 1015.7      
Jan 18 22:53 Calm 12.87 Clear CLR 12 11     96%     1016.6 1016.3      
May 15 10:53 NE 13 16.09 Mostly Cloudy SCT030 SCT045 BKN075 27 19     61%   28 1015.6 1015.2      
May 15 08:53 E 9 16.09 Clear CLR 24 19     74%   25 1015.2 1014.6      
May 15 07:53 E 11 16.09 Partly Cloudy SCT120 22 19     84%   23 1015.2 1014.6      
May 14 23:53 Calm 14.48 Clear CLR 18 18     97%     1014.9 1014.3      
May 13 06:53 Calm 9.66 Fog/Mist CLR 17 17     97%     1019.7 1019.2      
Jun 12 06:39 5 16.09 Mostly Clear FEW002 22 22     100%   23 1021        
Jun 12 05:53 Calm 16.09 Mostly Clear FEW011 21 21     100%     1020.7 1020.1      
Jun 11 21:53 SSW 5 14.48 Cloudy OVC100 23 21     87%   24 1021 1020.3 0 0  
Jun 11 20:00 Calm 16.09 Cloudy OVC070 24 23     96%   25 1019.7        
Notice The following observation data may not be complete
Jun 11 07:13   16.09 Partly Cloudy SCT016          %              
Jun 10 12:53 ESE 15 16.09 Mostly Cloudy FEW050 BKN075 31 18     46%   31 1018.6 1018      
Jun 10 04:53 Calm 16.09 Clear CLR 17 17     100%     1016.3 1015.8      
Jun 09 15:53   16.09 Clear CLR 30 16     42%   30 1013.6 1013.1      
Jun 08 12:53 9 16.09 Mostly Clear FEW040 27 17     53%   28 1012.9 1012.1      
Jun 08 09:53 8 16.09 Clear CLR 23 17     68%   23 1012.9 1012.4      
Jun 08 07:53 NE 13 16.09 Clear CLR 20 17     84%     1012.5 1012.1      
Jun 08 00:53 Calm 16.09 Clear CLR 20 19     96%     1010.5 1009.8      
Jun 07 10:53 NE 17 16.09 Mostly Cloudy BKN019 BKN024 BKN032 26 21     74%   28 1007.8 1007.2      
Notice The following observation data may not be complete
Jun 06 03:28   12.87 Partly Cloudy FEW002 SCT015          %              
Jun 05 22:53 Calm 16.09 Cloudy SCT024 BKN050 OVC095 22 22     100%   23 1010.5 1010      
Jun 05 16:53 S 13 16.09 Mostly Clear FEW032 27 22     72%   29 1009.2 1008.5      
Jun 05 15:53 SSE 13 16.09 Mostly Clear FEW018 26 23     82%   28 1009.2 1008.5   0  
Jun 05 14:32 S 8 16.09 Mostly Clear FEW007 24 23     94%   25 1010.5   0